Flag for Japan Weather past 2 weeks in Suzuka, Japan

Now
66 °F

Mild.


Feels Like: 66 °F
Forecast: 53 / 61 °F
Wind: 5 mph from West

Location: Tsu


UV Index: 0 (Low)

Visibility: N/A


Pressure: 29.88 "Hg

Humidity: 41%

Dew point: 42 °F

Location of SuzukaLocation

Historic Weather in Suzuka

°F

Suzuka temperature yesterday

Maximum temperature yesterday: 75 °F (at 11:00 AM)
Minimum temperature yesterday: 59 °F (at 6:00 AM)
Average temperature yesterday: 67 °F

Past Weeks' High & Low Weather Summary

 TemperatureHumidityPressure
High75 °F (Apr 17, 11:00 AM)93% (Apr 3, 11:00 PM)30.16 "Hg (Apr 3, 11:00 PM)
Low41 °F (Apr 7, 5:00 AM)10% (Apr 15, 3:00 PM)29.41 "Hg (Apr 4, 1:00 PM)
Average57 °F49%29.96 "Hg
* Reported Apr 3 1:00 AM — Apr 18 1:00 AM, Suzuka, Weather by CustomWeather, © 2014

Note: Actual official high and low records may vary slightly from our data, if they occured in-between our weather recording intervals... More about our weather records

Advertising

Historic Weather Conditions — Data for Previous 24 hours

 ConditionsComfort  
Time TempWeatherWind HumidityBarometerVisibility
1:00 AM
Apr 18
66 °FMild.5 mph41%29.88 "HgN/A
12:00 AM67 °FMild.3 mph39%29.90 "HgN/A
11:00 PM
Apr 17
68 °FMild.3 mph39%29.90 "HgN/A
10:00 PM69 °FMild.6 mph35%29.90 "HgN/A
9:00 PM69 °FOvercast.6 mph38%29.90 "Hg6 mi
8:00 PM70 °FMild.3 mph42%29.89 "HgN/A
7:00 PM72 °FMild.7 mph37%29.87 "HgN/A
6:00 PM72 °FMild.10 mph42%29.87 "HgN/A
5:00 PM70 °FMild.6 mph49%29.88 "HgN/A
4:00 PM70 °FMild.6 mph51%29.87 "HgN/A
3:00 PM72 °FHaze.6 mph46%29.88 "Hg5 mi
2:00 PM71 °FMild.7 mph47%29.90 "HgN/A
1:00 PM70 °FMild.9 mph56%29.90 "HgN/A
12:00 PM75 °FMild.12 mph37%29.92 "HgN/A
11:00 AM75 °FMild.5 mph33%29.94 "HgN/A
10:00 AM73 °FMild.10 mph36%29.96 "HgN/A
9:00 AM70 °FSunny.10 mph41%29.97 "Hg5 mi
8:00 AM66 °FMild.10 mph51%29.98 "HgN/A
7:00 AM61 °FCool.6 mph60%29.98 "HgN/A
6:00 AM59 °FCool.6 mph62%29.98 "HgN/A
5:00 AM60 °FCool.6 mph60%29.96 "HgN/A
4:00 AM61 °FRefreshingly cool.8 mph55%29.95 "HgN/A
3:00 AM61 °FRefreshingly cool.10 mph52%29.94 "HgN/A
2:00 AM62 °FRefreshingly cool.6 mph48%29.93 "HgN/A
Weather by CustomWeather, © 2014

See weather overview